Vertical_Velocity
4 3 -3 -0 -0 1 1 0 1 2 -2 -3 0 -0 -0 -3 5 2 -1 -8 1 -4 1 1 -1 -3 3 -2 -0 1 -0 -2 -2 -1 1 1 -1 -1 -0 -0 -2 -2 -3 -2
2 0 -1 2 2 -0 -1 -0 -0 -1 1 -1 0 -0 -1 -2 3 1 -3 0 -2 -3 -2 -1 -1 -2 1 2 -1 -1 -3 -1 0 -3 -2 -3 -2 -0 -2 -3 -3 -2 -1 1
1 -4 -1 -0 1 0 -1 -0 -1 -0 1 1 -1 -0 0 -1 -1 1 -0 0 1 -0 -0 -2 -1 0 -2 2 0 -0 -3 -1 -0 1 -1 1 1 -1 -4 0 -1 -1 -0 -0
2 1 0 2 4 -1 2 1 1 -1 0 -2 -1 -2 -3 -2 -4 1 1 1 0 -3 -1 -3 -5 0 0 -1 -2 0 -0 -1 -1 0 -0 -0 -1 -2 -1 -1 -1 -1 1 1
2 1 -0 1 1 1 3 -1 -1 -1 -0 -2 4 1 -3 -2 -3 -2 2 -0 3 -1 -0 -1 -3 1 -0 1 -3 -1 0 1 -2 -2 -1 -4 0 -1 0 0 -1 -1 1 0
-1 0 1 1 1 -2 1 1 -0 -2 2 3 -3 1 -1 -1 -1 0 -3 3 -1 2 0 -3 -2 -2 -1 -0 3 -3 -2 3 1 -2 1 1 4 -1 -2 1 -1 -0 -1 -2
-1 -0 2 1 0 1 -2 1 -1 -2 -2 3 1 -1 3 1 0 -2 0 -5 3 0 -1 12 1 -1 -1 -3 -0 0 0 -3 2 -0 -0 3 1 1 -1 -1 -1 1 -2 -2
-0 3 -1 -3 -2 0 -1 -2 1 -2 -2 1 -0 -2 0 -0 1 -0 -1 -1 -5 1 1 -1 0 -2 5 -1 -1 -2 -0 -3 -3 1 -2 -1 0 0 0 0 -1 1 0 1
2 1 0 1 2 0 1 -1 1 -0 1 -0 -1 -0 -1 0 0 1 0 -2 -0 -4 2 -2 -1 5 -3 3 -1 1 -1 -2 -4 -0 1 -0 3 -1 0 -2 0 -1 1 2
4 5 1 -0 0 -1 -0 -1 -2 -1 -1 -1 -3 -2 -3 -1 -1 0 -1 0 1 1 -1 0 -3 -2 2 2 -1 2 2 -2 -1 -3 1 -0 -1 3 1 -2 0 -1 1 -0
4 -1 -3 -1 -3 0 -2 1 2 1 -1 -2 0 0 -1 -3 0 -1 -3 -4 -0 -3 1 1 4 3 -3 0 -2 -1 3 1 -1 -4 -3 -1 -2 -1 3 1 -0 -1 -0 0
-0 -2 -0 -1 -2 0 1 -4 -3 0 1 -1 -2 -1 -1 1 -0 0 -1 -1 -4 -0 -5 -1 -0 3 3 -2 -3 -1 1 3 1 -1 -3 0 2 0 0 1 1 0 -0 -1
2 -1 0 2 0 3 1 0 -2 -2 -4 0 -3 1 -4 -1 -2 -1 -1 -3 -2 -3 -2 -3 -2 -5 4 1 -3 -0 3 1 1 -0 0 -1 -1 -1 -2 -2 -1 -1 1 -3
0 4 -0 -4 -0 -1 -0 2 2 -1 -4 -1 -1 -0 -5 -2 -1 -2 -0 -1 -1 -2 -2 -2 -3 -2 1 1 -2 -3 -1 -2 -1 -2 3 3 4 0 -1 1 1 -1 -1 -0
2 -1 -0 0 -1 -2 0 -1 -1 -1 -3 -4 -1 -3 -1 -3 -2 -2 -1 -1 -1 -2 -3 0 -2 0 -0 0 -3 -1 -2 -3 -3 2 1 5 2 -1 -1 -2 0 -3 -0 -1
0 2 0 -0 1 1 -0 -2 -3 1 1 -0 -6 -1 -3 -3 -1 -1 -2 -2 -3 -1 1 -1 -1 -0 2 0 6 1 0 2 2 2 4 1 -1 -1 -1 -2 -2 -0 -2 -1
-2 -1 -0 0 -4 -2 -1 -1 -2 -3 -3 -7 -5 -5 -3 -1 1 0 -1 -0 -2 -2 -2 1 -5 4 2 -2 6 -2 5 0 -0 0 -1 -1 -1 -0 -2 -6 -0 2 -2 -3
-1 -1 -1 -1 -0 -3 -1 -0 -0 -1 -2 -5 -1 -2 -3 -0 -0 0 -1 -2 -2 0 1 3 2 -5 4 -1 5 4 3 9 14 6 4 0 0 1 -0 2 2 1 1 -3
1 -0 -1 -2 0 -3 4 -0 -5 -2 -1 -1 0 1 -1 -1 -0 3 -0 2 0 1 -1 -4 1 -2 -2 -1 -0 -4 -4 -3 -2 -0 0 2 1 4 -1 2 2 -0 -1 1
-0 -1 -4 -1 -4 -2 3 -1 -3 -1 -2 -0 -1 -4 -1 -0 2 -3 2 0 -1 2 -1 2 10 -4 -4 -6 1 -3 19 -3 3 2 -1 -1 -0 2 4 2 -2 4 -1 -1
-0 -2 -1 -0 -3 1 -1 -4 -1 -1 -3 -1 -3 2 2 2 0 1 3 1 -1 -2 0 -2 -1 2 2 -4 -0 3 1 2 5 4 -1 1 -1 2 -1 0 -1 -2 0 8
-1 -1 1 -1 -2 1 -2 -2 -2 -1 0 1 -2 -1 1 -0 2 8 2 9 13 0 12 2 0 4 2 11 9 1 -7 -5 -6 13 14 8 4 6 4 5 11 7 5 4
-4 3 1 -0 -1 -0 -1 -1 -0 1 1 -1 -3 4 2 3 6 7 22 6 -3 17 32 12 2 -6 2 2 1 -1 -1 -1 3 -3 -2 -6 -2 8 8 3 6 8 5 4
-0 2 -0 1 -4 -0 0 -1 -0 -0 -1 -4 -3 3 3 2 8 3 5 21 4 2 0 -3 0 -0 5 2 4 5 -2 1 -0 -1 -2 -2 -1 0 2 4 4 -0 3 1
1 1 1 -1 -3 -3 0 -3 0 -2 -1 -0 -2 -1 0 1 2 9 18 5 2 -0 -6 0 2 1 1 -1 6 8 7 3 1 2 1 1 -2 -1 -1 -1 1 0 0 0
4 3 4 -0 -2 -4 -1 -2 -2 -3 -0 -1 -2 -3 -3 0 0 2 3 -0 -2 2 -5 -1 1 3 2 2 3 2 -0 -2 -1 1 2 1 0 -4 -2 -0 -2 -2 -1 3
Height
5859 5862 5863 5865 5867 5870 5871 5872 5873 5872 5872 5873 5873 5873 5873 5875 5876 5876 5874 5874 5876 5875 5879 5882 5881 5883 5885 5885 5887 5888 5889 5891 5893 5896 5899 5901 5903 5903 5905 5908 5910 5912 5913 5913
5858 5859 5860 5862 5865 5867 5869 5871 5871 5873 5872 5873 5873 5873 5872 5873 5875 5875 5874 5875 5875 5876 5877 5880 5881 5882 5886 5887 5888 5890 5891 5893 5895 5896 5898 5902 5904 5904 5906 5908 5910 5912 5913 5914
5853 5855 5856 5860 5863 5866 5867 5868 5870 5872 5872 5872 5872 5872 5871 5870 5871 5872 5875 5875 5873 5874 5876 5877 5879 5881 5884 5887 5889 5890 5893 5894 5896 5898 5899 5902 5905 5906 5907 5908 5910 5911 5912 5913
5851 5853 5855 5858 5861 5863 5866 5867 5868 5868 5870 5870 5871 5871 5870 5870 5870 5870 5873 5874 5873 5873 5875 5875 5878 5880 5881 5885 5888 5890 5893 5895 5897 5898 5899 5901 5903 5906 5907 5908 5909 5911 5913 5914
5851 5851 5854 5855 5858 5862 5863 5863 5864 5865 5867 5869 5870 5870 5869 5869 5869 5869 5870 5872 5872 5873 5874 5876 5876 5878 5880 5883 5885 5888 5891 5894 5896 5900 5898 5899 5904 5907 5907 5908 5909 5911 5912 5914
5848 5850 5853 5854 5856 5858 5860 5861 5862 5863 5865 5867 5865 5867 5867 5868 5868 5868 5868 5870 5871 5873 5873 5872 5875 5877 5878 5881 5884 5886 5889 5893 5895 5898 5899 5900 5904 5907 5908 5909 5910 5911 5912 5913
5848 5850 5852 5853 5855 5856 5857 5858 5858 5860 5861 5864 5863 5864 5866 5865 5866 5866 5866 5866 5869 5870 5872 5870 5872 5875 5877 5878 5882 5884 5887 5890 5894 5897 5899 5902 5903 5905 5908 5908 5909 5910 5912 5914
5848 5850 5851 5851 5853 5855 5854 5855 5855 5854 5856 5859 5859 5861 5862 5861 5862 5864 5864 5864 5865 5866 5868 5869 5868 5871 5873 5876 5877 5882 5884 5886 5891 5895 5897 5900 5902 5904 5907 5908 5907 5910 5912 5914
5849 5850 5850 5851 5853 5854 5852 5852 5852 5851 5852 5853 5855 5856 5857 5857 5859 5860 5860 5860 5861 5860 5863 5864 5865 5866 5869 5873 5876 5879 5882 5884 5886 5891 5895 5898 5901 5902 5904 5907 5907 5906 5909 5912
5848 5848 5848 5849 5850 5849 5850 5850 5848 5848 5849 5849 5849 5851 5851 5854 5854 5856 5856 5856 5857 5856 5857 5860 5862 5864 5866 5870 5874 5877 5881 5883 5884 5886 5891 5895 5898 5902 5903 5905 5906 5906 5907 5909
5844 5844 5846 5846 5845 5846 5846 5847 5846 5846 5846 5845 5846 5848 5848 5849 5851 5852 5851 5850 5851 5851 5853 5855 5859 5861 5862 5866 5870 5874 5878 5880 5881 5882 5886 5890 5894 5898 5901 5902 5904 5905 5906 5907
5839 5839 5841 5842 5841 5841 5841 5842 5842 5842 5842 5841 5841 5843 5845 5845 5846 5846 5846 5846 5845 5846 5846 5848 5851 5855 5860 5861 5864 5868 5872 5876 5878 5880 5882 5885 5890 5893 5896 5899 5901 5903 5904 5905
5835 5835 5837 5838 5839 5838 5836 5836 5836 5837 5836 5836 5836 5839 5839 5838 5838 5840 5840 5840 5840 5840 5841 5843 5844 5847 5851 5854 5856 5862 5867 5871 5872 5876 5879 5881 5884 5887 5891 5895 5897 5899 5901 5903
5831 5831 5831 5832 5832 5832 5831 5831 5830 5829 5829 5829 5830 5831 5831 5832 5832 5833 5834 5835 5835 5834 5836 5837 5838 5840 5841 5845 5848 5853 5859 5863 5866 5870 5874 5876 5880 5883 5885 5889 5891 5893 5895 5898
5827 5826 5826 5825 5824 5824 5823 5823 5822 5821 5820 5819 5822 5822 5824 5825 5825 5826 5827 5828 5829 5828 5830 5831 5832 5834 5835 5836 5841 5846 5851 5855 5859 5864 5867 5871 5874 5878 5880 5883 5884 5886 5889 5892
5821 5822 5822 5822 5821 5818 5816 5814 5813 5812 5812 5811 5811 5815 5815 5817 5818 5818 5820 5820 5822 5823 5823 5825 5826 5828 5831 5834 5837 5841 5845 5850 5854 5857 5861 5865 5869 5872 5874 5878 5880 5881 5882 5885
5816 5815 5815 5814 5813 5810 5810 5808 5806 5805 5804 5803 5805 5806 5807 5809 5811 5811 5811 5814 5816 5816 5817 5819 5821 5823 5825 5827 5832 5835 5839 5843 5847 5852 5855 5858 5860 5864 5866 5870 5873 5876 5877 5878
5811 5811 5809 5808 5807 5805 5805 5803 5802 5800 5797 5795 5797 5798 5801 5803 5804 5806 5806 5807 5809 5810 5812 5813 5815 5817 5819 5822 5823 5825 5831 5834 5838 5844 5846 5851 5854 5857 5860 5864 5866 5869 5872 5874
5807 5806 5805 5803 5802 5801 5801 5798 5797 5795 5793 5788 5790 5793 5795 5796 5797 5799 5800 5801 5803 5806 5806 5809 5811 5813 5816 5819 5821 5824 5826 5829 5832 5835 5838 5842 5845 5849 5852 5855 5859 5861 5863 5866
5802 5801 5801 5798 5796 5796 5795 5793 5792 5791 5788 5786 5787 5789 5790 5792 5791 5791 5793 5794 5798 5801 5802 5804 5806 5808 5812 5813 5817 5820 5821 5823 5826 5828 5830 5834 5837 5840 5844 5847 5850 5852 5855 5858
5798 5797 5796 5794 5792 5791 5788 5786 5786 5786 5788 5784 5784 5786 5787 5787 5786 5787 5789 5792 5794 5796 5798 5801 5804 5805 5807 5807 5811 5814 5817 5819 5823 5824 5826 5829 5830 5832 5836 5838 5841 5844 5847 5851
5792 5792 5792 5790 5788 5787 5784 5782 5783 5783 5782 5781 5781 5782 5783 5783 5783 5784 5785 5787 5790 5794 5796 5797 5799 5801 5804 5807 5809 5810 5813 5815 5817 5818 5821 5825 5826 5829 5830 5832 5834 5836 5838 5841
5788 5789 5788 5787 5784 5784 5781 5780 5780 5781 5780 5781 5780 5781 5780 5779 5779 5780 5781 5784 5786 5789 5789 5790 5794 5798 5800 5803 5803 5808 5809 5811 5811 5815 5817 5819 5823 5823 5826 5828 5830 5831 5832 5835
5783 5784 5783 5783 5781 5780 5780 5779 5779 5780 5779 5780 5780 5780 5779 5777 5777 5778 5778 5780 5780 5785 5788 5792 5795 5798 5800 5803 5805 5807 5807 5809 5810 5812 5814 5815 5817 5819 5822 5823 5823 5823 5825 5826
5781 5781 5781 5780 5778 5778 5778 5778 5778 5779 5779 5780 5780 5780 5779 5779 5779 5777 5774 5778 5782 5786 5790 5793 5795 5797 5800 5801 5802 5804 5807 5808 5809 5812 5812 5813 5815 5815 5816 5817 5818 5820 5821 5823
5777 5778 5779 5777 5776 5775 5776 5776 5777 5778 5778 5778 5779 5780 5779 5779 5779 5780 5782 5785 5788 5790 5791 5792 5793 5797 5798 5800 5801 5803 5805 5805 5806 5807 5808 5809 5810 5811 5812 5813 5814 5815 5816 5817